When you browse on this site, cookies collect data to enhance your experience and personalize the content and advertising you see.
Visit our Privacy Policy to learn more. By continuing to use the site, you agree to this use of cookies and data.
  • In Deutschland
  • Länderverzeichnis
  • Für 7 Tage
  • Wassertemperatur
  • Wetterkarte
  • Widgets
  • user-avatar
    Anmelden

    Stündliche Wetter Burgas

    Heute, 22 November, Freitag

    Zeit Temperatur Niederschläge Wind Luftdruck Luftfeuchtigkeit
    00:00 +12°C° 0.2 mm 8 m/S 762 mmHg 84%
    01:00 +11°C° 0.2 mm 8 m/S 762 mmHg 84%
    02:00 +11°C° 0 mm 9 m/S 762 mmHg 83%
    03:00 +11°C° 0.1 mm 8 m/S 762 mmHg 83%
    04:00 +11°C° 0.1 mm 8 m/S 762 mmHg 83%
    05:00 +11°C° 0.1 mm 8 m/S 762 mmHg 82%
    06:00 +10°C° 0.1 mm 8 m/S 762 mmHg 82%
    07:00 +10°C° 0.1 mm 8 m/S 762 mmHg 82%
    08:00 +10°C° 0 mm 9 m/S 763 mmHg 82%
    09:00 +10°C° 0 mm 8 m/S 763 mmHg 81%
    10:00 +10°C° 0 mm 8 m/S 763 mmHg 80%
    11:00 +10°C° 0 mm 8 m/S 763 mmHg 78%
    12:00 +10°C° 0.1 mm 8 m/S 763 mmHg 78%
    13:00 +10°C° 0.1 mm 8 m/S 763 mmHg 78%
    14:00 +9°C° 0 mm 8 m/S 763 mmHg 78%
    15:00 +9°C° 0 mm 8 m/S 763 mmHg 79%
    16:00 +9°C° 0 mm 8 m/S 763 mmHg 80%
    17:00 +9°C° 0 mm 8 m/S 763 mmHg 81%
    18:00 +9°C° 0 mm 7 m/S 763 mmHg 80%
    19:00 +9°C° 0 mm 6 m/S 764 mmHg 80%
    20:00 +9°C° 0 mm 6 m/S 764 mmHg 79%
    21:00 +9°C° 0.2 mm 5 m/S 764 mmHg 81%
    22:00 +9°C° 0.2 mm 5 m/S 764 mmHg 82%
    23:00 +9°C° 0.2 mm 5 m/S 764 mmHg 83%

    Morgen, 23 November, Samstag

    Zeit Temperatur Niederschläge Wind Luftdruck Luftfeuchtigkeit
    00:00 +8°C° 0.4 mm 5 m/S 764 mmHg 84%
    01:00 +8°C° 0.4 mm 4 m/S 764 mmHg 84%
    02:00 +7°C° 0.4 mm 4 m/S 764 mmHg 85%
    03:00 +7°C° 0.3 mm 4 m/S 764 mmHg 85%
    04:00 +7°C° 0.3 mm 4 m/S 764 mmHg 85%
    05:00 +7°C° 0.3 mm 4 m/S 764 mmHg 86%
    06:00 +7°C° 0.3 mm 4 m/S 764 mmHg 86%
    07:00 +7°C° 0.3 mm 4 m/S 764 mmHg 87%
    08:00 +7°C° 0.3 mm 4 m/S 764 mmHg 87%
    09:00 +8°C° 0 mm 4 m/S 764 mmHg 86%
    10:00 +8°C° 0 mm 4 m/S 764 mmHg 85%
    11:00 +10°C° 0 mm 4 m/S 764 mmHg 83%
    12:00 +10°C° 0 mm 4 m/S 764 mmHg 83%
    13:00 +11°C° 0 mm 4 m/S 763 mmHg 82%
    14:00 +11°C° 0 mm 4 m/S 763 mmHg 82%
    15:00 +11°C° 0.1 mm 4 m/S 763 mmHg 83%
    16:00 +11°C° 0.1 mm 4 m/S 763 mmHg 85%
    17:00 +11°C° 0.1 mm 4 m/S 763 mmHg 86%
    18:00 +11°C° 0.1 mm 4 m/S 763 mmHg 87%
    19:00 +11°C° 0.1 mm 4 m/S 763 mmHg 88%
    20:00 +11°C° 0.1 mm 3 m/S 763 mmHg 88%
    21:00 +11°C° 0.1 mm 3 m/S 763 mmHg 89%
    22:00 +10°C° 0.1 mm 4 m/S 763 mmHg 90%
    23:00 +10°C° 0.1 mm 4 m/S 763 mmHg 90%

    übermorgen, 24 November, Sonntag

    Zeit Temperatur Niederschläge Wind Luftdruck Luftfeuchtigkeit
    00:00 +10°C° 0.4 mm 4 m/S 763 mmHg 91%
    01:00 +11°C° 0.4 mm 4 m/S 763 mmHg 91%
    02:00 +11°C° 0.4 mm 4 m/S 763 mmHg 91%
    03:00 +11°C° 0.5 mm 3 m/S 763 mmHg 92%
    04:00 +11°C° 0.5 mm 3 m/S 762 mmHg 92%
    05:00 +11°C° 0.5 mm 3 m/S 762 mmHg 93%
    06:00 +11°C° 0.3 mm 3 m/S 762 mmHg 93%
    07:00 +12°C° 0.3 mm 2 m/S 763 mmHg 93%
    08:00 +12°C° 0.3 mm 2 m/S 763 mmHg 93%
    09:00 +13°C° 0.2 mm 2 m/S 763 mmHg 90%
    10:00 +14°C° 0.2 mm 1 m/S 763 mmHg 86%
    11:00 +15°C° 0.2 mm 1 m/S 762 mmHg 82%
    12:00 +15°C° 0.1 mm 1 m/S 762 mmHg 79%
    13:00 +16°C° 0.1 mm 1 m/S 762 mmHg 76%
    14:00 +16°C° 0.1 mm 1 m/S 761 mmHg 74%
    15:00 +15°C° 0 mm 2 m/S 761 mmHg 78%
    16:00 +15°C° 0 mm 2 m/S 761 mmHg 82%
    17:00 +14°C° 0 mm 2 m/S 761 mmHg 86%
    18:00 +13°C° 0.1 mm 2 m/S 761 mmHg 88%
    19:00 +13°C° 0.1 mm 2 m/S 761 mmHg 90%
    20:00 +13°C° 0.1 mm 2 m/S 761 mmHg 93%
    21:00 +13°C° 0.1 mm 2 m/S 761 mmHg 93%
    22:00 +12°C° 0.1 mm 3 m/S 760 mmHg 93%
    23:00 +12°C° 0.1 mm 3 m/S 760 mmHg 93%

    25 November, Montag

    Zeit Temperatur Niederschläge Wind Luftdruck Luftfeuchtigkeit
    00:00 +12°C° 0.1 mm 3 m/S 760 mmHg 93%
    01:00 +12°C° 0.1 mm 3 m/S 760 mmHg 93%
    02:00 +12°C° 0.1 mm 3 m/S 759 mmHg 93%
    03:00 +12°C° 0.1 mm 3 m/S 759 mmHg 93%
    04:00 +12°C° 0.1 mm 3 m/S 759 mmHg 93%
    05:00 +12°C° 0.1 mm 4 m/S 758 mmHg 93%
    06:00 +12°C° 0.1 mm 4 m/S 758 mmHg 92%
    07:00 +12°C° 0.1 mm 5 m/S 758 mmHg 92%
    08:00 +12°C° 0.1 mm 5 m/S 759 mmHg 92%
    09:00 +13°C° 0.1 mm 5 m/S 758 mmHg 88%
    10:00 +14°C° 0.1 mm 6 m/S 758 mmHg 84%
    11:00 +14°C° 0.1 mm 6 m/S 758 mmHg 81%
    12:00 +14°C° 0.1 mm 6 m/S 757 mmHg 80%
    13:00 +14°C° 0.1 mm 6 m/S 757 mmHg 80%
    14:00 +15°C° 0.1 mm 6 m/S 756 mmHg 79%
    15:00 +14°C° 0.1 mm 6 m/S 756 mmHg 81%
    16:00 +14°C° 0.1 mm 6 m/S 756 mmHg 83%
    17:00 +13°C° 0.1 mm 6 m/S 756 mmHg 86%
    18:00 +13°C° 0.1 mm 6 m/S 755 mmHg 86%
    19:00 +12°C° 0.1 mm 7 m/S 755 mmHg 86%
    20:00 +12°C° 0.1 mm 7 m/S 755 mmHg 87%
    21:00 +12°C° 0.3 mm 7 m/S 755 mmHg 87%
    22:00 +12°C° 0.3 mm 7 m/S 754 mmHg 88%
    23:00 +12°C° 0.3 mm 7 m/S 754 mmHg 89%

    26 November, Dienstag

    Zeit Temperatur Niederschläge Wind Luftdruck Luftfeuchtigkeit
    00:00 +12°C° 1.8 mm 7 m/S 754 mmHg 90%
    01:00 +12°C° 1.8 mm 7 m/S 753 mmHg 91%
    02:00 +12°C° 1.8 mm 7 m/S 753 mmHg 92%
    03:00 +12°C° 2.9 mm 7 m/S 753 mmHg 92%
    04:00 +13°C° 2.9 mm 6 m/S 752 mmHg 93%
    05:00 +13°C° 2.9 mm 5 m/S 752 mmHg 93%
    06:00 +13°C° 2.8 mm 5 m/S 752 mmHg 93%
    07:00 +13°C° 2.8 mm 6 m/S 752 mmHg 94%
    08:00 +11°C° 2.8 mm 6 m/S 752 mmHg 94%
    09:00 +11°C° 1.8 mm 6 m/S 753 mmHg 93%
    10:00 +11°C° 1.8 mm 6 m/S 753 mmHg 92%
    11:00 +11°C° 1.8 mm 6 m/S 753 mmHg 90%
    12:00 +11°C° 1 mm 6 m/S 753 mmHg 90%
    13:00 +11°C° 1 mm 7 m/S 753 mmHg 90%
    14:00 +10°C° 1 mm 8 m/S 753 mmHg 89%
    15:00 +10°C° 0.8 mm 8 m/S 753 mmHg 89%
    16:00 +9°C° 0.8 mm 8 m/S 753 mmHg 88%
    17:00 +9°C° 0.8 mm 8 m/S 754 mmHg 88%
    18:00 +9°C° 0.9 mm 8 m/S 754 mmHg 88%
    19:00 +8°C° 0.9 mm 7 m/S 754 mmHg 87%
    20:00 +8°C° 0.9 mm 6 m/S 755 mmHg 87%
    21:00 +8°C° 0.2 mm 6 m/S 755 mmHg 86%
    22:00 +8°C° 0.2 mm 5 m/S 756 mmHg 85%
    23:00 +8°C° 0.2 mm 5 m/S 756 mmHg 84%

    27 November, Mittwoch

    Zeit Temperatur Niederschläge Wind Luftdruck Luftfeuchtigkeit
    00:00 +7°C° 0 mm 4 m/S 756 mmHg 85%
    01:00 +7°C° 0 mm 4 m/S 756 mmHg 86%
    02:00 +6°C° 0 mm 4 m/S 756 mmHg 87%
    03:00 +7°C° 0 mm 3 m/S 757 mmHg 87%
    04:00 +7°C° 0 mm 3 m/S 757 mmHg 88%
    05:00 +7°C° 0 mm 2 m/S 757 mmHg 88%
    06:00 +7°C° 0 mm 2 m/S 757 mmHg 88%
    07:00 +7°C° 0 mm 2 m/S 757 mmHg 88%
    08:00 +8°C° 0 mm 1 m/S 758 mmHg 88%
    09:00 +9°C° 0 mm 1 m/S 758 mmHg 82%
    10:00 +10°C° 0 mm 1 m/S 758 mmHg 76%
    11:00 +11°C° 0 mm 1 m/S 758 mmHg 70%
    12:00 +12°C° 0 mm 1 m/S 758 mmHg 69%
    13:00 +11°C° 0 mm 0 m/S 757 mmHg 67%
    14:00 +12°C° 0 mm 0 m/S 757 mmHg 65%
    15:00 +12°C° 0 mm 1 m/S 757 mmHg 70%
    16:00 +11°C° 0 mm 1 m/S 757 mmHg 74%
    17:00 +10°C° 0 mm 1 m/S 758 mmHg 79%
    18:00 +10°C° 0 mm 1 m/S 758 mmHg 81%
    19:00 +10°C° 0 mm 1 m/S 758 mmHg 82%
    20:00 +9°C° 0 mm 1 m/S 758 mmHg 84%
    21:00 +9°C° 0 mm 1 m/S 758 mmHg 85%
    22:00 +9°C° 0 mm 1 m/S 758 mmHg 86%
    23:00 +9°C° 0 mm 1 m/S 757 mmHg 87%
    Mehr zeigen